EW4336 Weather Reports


Display with metric or nautical units.
time (UTC)temp
F
wind
direction
speed
MPH
gust
MPH
rain 1hr
in
rain 24hr
in
rain mn
in
humidity
%
barometer
mb
20260507220629 60 255 2.0 4.0 0.00 0.00 0.00 39 1009.7
20260507215627 59 233 0.0 4.0 0.00 0.00 0.00 40 1009.6
20260507215128 59 271 1.0 3.0 0.00 0.00 0.00 40 1009.7
20260507214627 59 261 0.0 6.0 0.00 0.00 0.00 40 1009.7
20260507214128 59 252 1.0 9.0 0.00 0.00 0.00 39 1009.6
20260507213626 60 248 2.0 9.0 0.00 0.00 0.00 41 1009.5
20260507213126 60 244 2.0 6.0 0.00 0.00 0.00 39 1009.4
20260507212127 60 272 0.0 6.0 0.00 0.00 0.00 42 1009.5
20260507211626 59 275 0.0 6.0 0.00 0.00 0.00 42 1009.6
20260507210627 60 238 0.0 4.0 0.00 0.00 0.00 43 1009.4
20260507205627 60 299 4.0 10.0 0.00 0.00 0.00 39 1009.3
20260507205127 60 245 1.0 4.0 0.00 0.00 0.00 39 1009.2
20260507204626 60 264 1.0 7.0 0.00 0.00 0.00 38 1009.2
20260507204126 60 265 3.0 7.0 0.00 0.00 0.00 37 1009.3
20260507203627 61 265 2.0 5.0 0.00 0.00 0.00 38 1009.3
20260507203127 61 231 1.0 7.0 0.00 0.00 0.00 38 1009.2
20260507202627 61 261 1.0 7.0 0.00 0.00 0.00 41 1009.4
20260507202126 61 217 1.0 11.0 0.00 0.00 0.00 38 1009.4
20260507200127 61 266 1.0 5.0 0.00 0.00 0.00 41 1009.7
20260507195628 61 274 2.0 7.0 0.00 0.00 0.00 40 1009.6
20260507194126 61 305 5.0 11.0 0.00 0.00 0.00 38 1009.8
20260507193628 62 288 2.0 6.0 0.00 0.00 0.00 42 1009.7
20260507193127 62 285 2.0 6.0 0.00 0.00 0.00 41 1009.9
20260507192627 62 258 1.0 6.0 0.00 0.00 0.00 44 1009.8
20260507192127 62 261 2.0 6.0 0.00 0.00 0.00 41 1009.9
20260507191627 62 219 2.0 5.0 0.00 0.00 0.00 43 1009.8
20260507191126 61 223 1.0 4.0 0.00 0.00 0.00 47 1009.9
20260507190626 60 158 1.0 7.0 0.00 0.00 0.00 42 1010.0
20260507190127 62 255 2.0 7.0 0.00 0.00 0.00 43 1010.0
20260507185627 62 289 1.0 5.0 0.00 0.00 0.00 43 1009.9
20260507185127 61 165 0.0 5.0 0.00 0.00 0.00 43 1010.0
20260507184627 62 223 0.0 4.0 0.00 0.00 0.00 44 1010.0
20260507184128 61 203 0.0 4.0 0.00 0.00 0.00 44 1010.1
20260507183626 61 188 0.0 3.0 0.00 0.00 0.00 46 1010.2
20260507183127 60 148 0.0 2.0 0.00 0.00 0.00 46 1010.2
20260507182627 60 233 0.0 2.0 0.00 0.00 0.00 44 1010.3
20260507182127 60 244 1.0 5.0 0.00 0.00 0.00 43 1010.3
20260507181626 61 305 1.0 7.0 0.00 0.00 0.00 45 1010.3
20260507181126 61 217 2.0 9.0 0.00 0.00 0.00 44 1010.3
20260507180626 61 158 0.0 9.0 0.00 0.00 0.00 43 1010.3
20260507180126 60 210 0.0 6.0 0.00 0.00 0.00 46 1010.3
20260507175627 60 186 1.0 4.0 0.00 0.00 0.00 45 1010.5
20260507175126 60 264 0.0 5.0 0.00 0.00 0.00 48 1010.5
20260507174630 60 305 2.0 5.0 0.00 0.00 0.00 45 1010.4
20260507174126 60 281 0.0 4.0 0.00 0.00 0.00 46 1010.6
20260507173628 60 257 0.0 2.0 0.00 0.00 0.00 48 1010.7
20260507173126 59 237 0.0 4.0 0.00 0.00 0.00 47 1010.8
20260507172627 60 230 0.0 4.0 0.00 0.00 0.00 45 1010.8
20260507171626 61 56 0.0 2.0 0.00 0.00 0.00 44 1010.9
20260507171125 62 254 0.0 2.0 0.00 0.00 0.00 43 1011.0
20260507170625 62 200 0.0 3.0 0.00 0.00 0.00 45 1011.1
20260507170124 62 221 0.0 5.0 0.00 0.00 0.00 43 1011.1
20260507165626 61 259 1.0 7.0 0.00 0.00 0.00 43 1011.1
20260507165125 61 135 0.0 7.0 0.00 0.00 0.00 48 1011.1
20260507164625 60 250 1.0 6.0 0.00 0.00 0.00 47 1011.3
20260507164126 60 285 1.0 6.0 0.00 0.00 0.00 46 1011.2
20260507162625 58 200 0.0 4.0 0.00 0.00 0.00 48 1011.5
20260507162129 58 230 1.0 4.0 0.00 0.00 0.00 46 1011.6
20260507161626 58 268 0.0 2.0 0.00 0.00 0.00 47 1011.7
20260507160626 60 219 0.0 5.0 0.00 0.00 0.00 44 1011.6
20260507160126 60 210 0.0 3.0 0.00 0.00 0.00 50 1011.7
20260507155626 59 259 0.0 2.0 0.00 0.00 0.00 50 1011.8
20260507155126 58 262 0.0 2.0 0.00 0.00 0.00 48 1011.8
20260507154626 59 231 0.0 4.0 0.00 0.00 0.00 48 1011.9
20260507154126 60 250 0.0 4.0 0.00 0.00 0.00 45 1011.9
20260507153627 62 185 0.0 1.0 0.00 0.00 0.00 48 1011.9
20260507153126 60 220 0.0 2.0 0.00 0.00 0.00 49 1011.9
20260507152626 59 281 0.0 4.0 0.00 0.00 0.00 48 1012.0
20260507152126 58 265 0.0 4.0 0.00 0.00 0.00 48 1012.1
20260507151627 58 214 0.0 3.0 0.00 0.00 0.00 50 1012.1
20260507150626 58 262 0.0 3.0 0.00 0.00 0.00 52 1012.2
20260507150126 57 204 0.0 3.0 0.00 0.00 0.00 51 1012.3
20260507145626 58 258 0.0 2.0 0.00 0.00 0.00 51 1012.4
20260507144625 56 271 0.0 4.0 0.00 0.01 0.00 49 1012.7
20260507144126 57 259 1.0 4.0 0.00 0.01 0.00 47 1012.7
20260507143626 58 130 0.0 3.0 0.00 0.01 0.00 49 1012.7
20260507143127 58 193 0.0 4.0 0.00 0.01 0.00 52 1012.7
20260507142626 57 157 1.0 4.0 0.00 0.01 0.00 54 1012.7
20260507142128 56 293 0.0 4.0 0.00 0.01 0.00 53 1012.8
20260507141626 56 96 0.0 4.0 0.00 0.01 0.00 55 1013.0
20260507141126 56 243 0.0 6.0 0.00 0.01 0.00 53 1013.0
20260507140125 58 203 0.0 1.0 0.00 0.01 0.00 56 1013.0
20260507135625 58 238 0.0 0.0 0.00 0.01 0.00 60 1013.1
20260507134126 57 220 0.0 0.0 0.00 0.02 0.00 57 1013.2
20260507133626 58 154 0.0 0.0 0.00 0.02 0.00 61 1013.3
20260507133127 57 230 0.0 0.0 0.00 0.02 0.00 61 1013.3
20260507132627 57 159 0.0 0.0 0.00 0.02 0.00 63 1013.4
20260507132126 56 212 0.0 0.0 0.00 0.02 0.00 67 1013.5
20260507131628 56 109 0.0 0.0 0.00 0.02 0.00 62 1013.5
20260507131125 56 151 0.0 0.0 0.00 0.02 0.00 65 1013.4
20260507130126 54 227 0.0 0.0 0.00 0.03 0.00 65 1013.3
20260507125626 55 255 0.0 0.0 0.00 0.04 0.00 65 1013.4
20260507125126 55 212 0.0 0.0 0.00 0.04 0.00 68 1013.4
20260507124626 55 245 0.0 0.0 0.00 0.04 0.00 69 1013.4
20260507124126 54 135 0.0 0.0 0.00 0.04 0.00 71 1013.3
20260507123626 52 135 0.0 0.0 0.00 0.04 0.00 75 1013.4
20260507123126 51 135 0.0 0.0 0.00 0.04 0.00 78 1013.5
20260507122127 49 135 0.0 0.0 0.00 0.05 0.00 81 1013.5
20260507121625 49 135 0.0 0.0 0.00 0.05 0.00 83 1013.6
20260507120627 46 135 0.0 0.0 0.00 0.06 0.00 90 1013.5
20260507120126 44 135 0.0 0.0 0.00 0.07 0.00 92 1013.5
20260507115625 43 135 0.0 0.0 0.00 0.08 0.00 92 1013.5
20260507115126 41 135 0.0 0.0 0.00 0.08 0.00 90 1013.5
20260507113626 39 223 0.0 0.0 0.00 0.09 0.00 91 1013.3
20260507113126 38 223 0.0 0.0 0.00 0.09 0.00 91 1013.3
20260507112626 38 223 0.0 0.0 0.00 0.09 0.00 92 1013.2
20260507111627 37 223 0.0 0.0 0.00 0.09 0.00 92 1013.1
20260507110628 36 223 0.0 0.0 0.00 0.09 0.00 92 1013.1
20260507110126 36 223 0.0 0.0 0.00 0.09 0.00 92 1013.2
20260507105627 36 223 0.0 0.0 0.00 0.10 0.00 92 1013.2
20260507105125 36 223 0.0 0.0 0.00 0.11 0.00 92 1013.1
20260507104126 36 223 0.0 0.0 0.00 0.13 0.00 92 1012.9
20260507103625 36 223 0.0 0.0 0.00 0.14 0.00 92 1012.9
20260507102627 36 223 0.0 0.0 0.00 0.15 0.00 92 1012.8
20260507102126 36 223 0.0 0.0 0.00 0.17 0.00 92 1012.8
20260507101626 36 223 0.0 0.0 0.00 0.19 0.00 92 1012.8
20260507101126 36 223 0.0 0.0 0.00 0.21 0.00 92 1012.8
20260507100625 36 223 0.0 0.0 0.00 0.23 0.00 92 1012.7
20260507095625 36 223 0.0 0.0 0.00 0.26 0.00 92 1012.8
20260507095127 37 223 0.0 0.0 0.00 0.29 0.00 92 1012.7
20260507094126 37 223 0.0 0.0 0.00 0.30 0.00 92 1012.7
20260507093627 37 223 0.0 0.0 0.00 0.30 0.00 92 1012.7
20260507093126 37 223 0.0 0.0 0.00 0.31 0.00 92 1012.7
20260507091626 38 223 0.0 0.0 0.00 0.34 0.00 92 1012.9
20260507091126 38 223 0.0 0.0 0.00 0.35 0.00 92 1012.9
20260507090627 38 223 0.0 0.0 0.00 0.37 0.00 92 1012.9
20260507090125 38 223 0.0 0.0 0.00 0.38 0.00 92 1013.0
20260507085626 38 223 0.0 0.0 0.00 0.39 0.00 92 1013.0
20260507084626 39 223 0.0 0.0 0.00 0.41 0.00 92 1012.9
20260507084125 39 223 0.0 0.0 0.00 0.42 0.00 92 1012.9
20260507083626 39 223 0.0 0.0 0.00 0.43 0.00 92 1012.8
20260507083125 39 223 0.0 0.0 0.00 0.44 0.00 91 1012.8
20260507082627 39 223 0.0 0.0 0.00 0.45 0.00 91 1012.8
20260507082126 39 223 0.0 0.0 0.00 0.46 0.00 91 1012.9
20260507081626 40 223 0.0 0.0 0.00 0.47 0.00 91 1012.8
20260507081125 40 223 0.0 0.0 0.00 0.47 0.00 91 1012.7
20260507080625 40 223 0.0 0.0 0.00 0.47 0.00 91 1012.8
20260507080126 40 223 0.0 0.0 0.00 0.47 0.00 91 1012.8
20260507075625 41 223 0.0 0.0 0.00 0.47 0.00 91 1012.8
20260507075127 41 223 0.0 0.0 0.00 0.47 0.00 90 1012.8
20260507074627 41 223 0.0 0.0 0.00 0.47 0.00 90 1012.8
20260507074127 41 223 0.0 0.0 0.00 0.47 0.00 90 1012.9
20260507073625 42 223 0.0 0.0 0.00 0.47 0.00 89 1012.9
20260507073126 42 223 0.0 0.0 0.00 0.47 0.00 89 1012.9
20260507072625 42 223 0.0 0.0 0.00 0.47 0.00 88 1013.0
20260507072124 42 223 0.0 0.0 0.00 0.47 0.00 88 1012.9
20260507071623 43 223 0.0 0.0 0.00 0.48 0.00 88 1012.9
20260507071124 43 223 0.0 0.0 0.00 0.48 0.00 87 1012.9
20260507065124 45 223 0.0 0.0 0.00 0.49 0.00 85 1013.0
20260507064625 45 223 0.0 0.0 0.00 0.49 0.00 84 1013.0
20260507064124 45 223 0.0 0.0 0.00 0.50 0.00 83 1013.0
20260507063626 46 223 0.0 0.0 0.00 0.50 0.00 82 1012.9
20260507063123 46 223 0.0 0.0 0.00 0.51 0.00 81 1012.9
20260507062624 46 223 0.0 0.0 0.00 0.51 0.00 82 1012.9
20260507062125 46 223 0.0 0.0 0.00 0.51 0.00 82 1012.9
20260507061625 46 223 0.0 0.0 0.00 0.52 0.00 82 1012.9
20260507061126 46 223 0.0 0.0 0.00 0.52 0.00 81 1013.0
20260507060625 46 223 0.0 0.0 0.00 0.52 0.00 79 1013.1
20260507060125 46 223 0.0 0.0 0.00 0.52 0.00 81 1013.1
20260507055625 47 223 0.0 0.0 0.00 0.53 0.00 82 1013.0
20260507055126 47 223 0.0 0.0 0.00 0.53 0.00 83 1013.2
20260507054126 47 223 0.0 0.0 0.00 0.53 0.00 83 1013.4
20260507053625 47 223 0.0 0.0 0.00 0.53 0.00 83 1013.6
20260507053126 47 223 0.0 0.0 0.00 0.53 0.00 83 1013.6
20260507052625 47 223 0.0 0.0 0.00 0.53 0.00 82 1013.6
20260507052125 47 223 0.0 0.0 0.00 0.54 0.00 82 1013.6
20260507051624 47 223 0.0 0.0 0.00 0.54 0.00 80 1013.7
20260507051124 47 223 0.0 0.0 0.00 0.54 0.00 80 1013.6
20260507050625 47 223 0.0 0.0 0.00 0.55 0.00 79 1013.6
20260507050125 47 223 0.0 0.0 0.00 0.55 0.00 79 1013.6
20260507045625 47 223 0.0 0.0 0.00 0.55 0.00 78 1013.5
20260507045125 47 223 0.0 0.0 0.00 0.55 0.00 78 1013.6
20260507043625 48 223 0.0 0.0 0.00 0.55 0.00 77 1013.5
20260507043125 48 223 0.0 0.0 0.00 0.55 0.00 79 1013.5
20260507042626 48 223 0.0 0.0 0.00 0.55 0.00 78 1013.5
20260507042125 48 223 0.0 0.0 0.00 0.55 0.00 77 1013.6
20260507041626 48 223 0.0 0.0 0.00 0.55 0.00 78 1013.6
20260507041125 48 223 0.0 0.0 0.00 0.55 0.00 75 1013.5
20260507040624 48 223 0.0 0.0 0.00 0.55 0.00 77 1013.5
20260507040125 48 223 0.0 0.0 0.00 0.55 0.00 74 1013.5
20260507035625 48 223 0.0 0.0 0.00 0.55 0.55 74 1013.4
20260507035125 48 223 0.0 0.0 0.00 0.55 0.55 74 1013.3
20260507034125 48 223 0.0 0.0 0.00 0.55 0.55 77 1013.4
20260507033625 48 223 0.0 0.0 0.00 0.55 0.55 77 1013.5
20260507033125 49 223 0.0 0.0 0.00 0.55 0.55 76 1013.4
20260507032626 49 223 0.0 0.0 0.00 0.55 0.55 77 1013.3
20260507032125 49 223 0.0 0.0 0.00 0.55 0.55 76 1013.2
20260507031625 49 223 0.0 0.0 0.00 0.55 0.55 75 1013.1
20260507031126 49 223 0.0 0.0 0.00 0.55 0.55 72 1013.0
20260507030625 49 223 0.0 0.0 0.00 0.55 0.55 73 1013.0
20260507030124 49 223 0.0 0.0 0.00 0.55 0.55 73 1013.0
20260507025624 49 223 0.0 0.0 0.00 0.55 0.55 75 1013.0
20260507025125 49 223 0.0 0.0 0.00 0.55 0.55 73 1012.9
20260507024125 49 223 0.0 0.0 0.00 0.55 0.55 72 1013.0
20260507023625 49 223 0.0 0.0 0.00 0.55 0.55 74 1012.8
20260507023125 49 223 0.0 0.0 0.00 0.55 0.55 75 1013.0
20260507022625 49 223 0.0 0.0 0.00 0.55 0.55 73 1013.0
20260507022125 49 223 0.0 0.0 0.00 0.55 0.55 71 1012.7
20260507021626 50 223 0.0 0.0 0.00 0.55 0.55 73 1012.7
20260507021125 50 223 0.0 0.0 0.00 0.55 0.55 75 1012.7
20260507020626 50 223 0.0 0.0 0.00 0.55 0.55 76 1012.7
20260507015626 50 223 0.0 0.0 0.00 0.55 0.55 71 1012.5
20260507015125 50 162 0.0 0.0 0.00 0.55 0.55 74 1012.4
20260507014625 50 162 0.0 0.0 0.00 0.55 0.55 74 1012.3
20260507014125 50 162 0.0 0.0 0.00 0.55 0.55 74 1012.2
20260507013626 50 162 0.0 0.0 0.00 0.55 0.55 73 1012.1
20260507013125 50 162 0.0 0.0 0.00 0.55 0.55 73 1012.0
20260507012625 50 162 0.0 0.0 0.00 0.55 0.55 73 1012.1
20260507011624 51 162 0.0 0.0 0.00 0.55 0.55 73 1012.1
20260507011125 51 162 0.0 0.0 0.00 0.55 0.55 73 1012.0
20260507010624 51 162 0.0 0.0 0.00 0.55 0.55 72 1012.3
20260507005624 51 162 0.0 0.0 0.00 0.55 0.55 73 1012.3
20260507005125 51 162 0.0 0.0 0.00 0.55 0.55 72 1012.3
20260507004125 52 162 0.0 0.0 0.00 0.55 0.55 73 1012.6
20260507003625 52 162 0.0 0.0 0.00 0.55 0.55 72 1012.5
20260507003124 52 79 0.0 0.0 0.00 0.55 0.55 70 1012.4
20260507002624 52 209 0.0 0.0 0.00 0.55 0.55 71 1012.4
20260507001625 53 134 0.0 0.0 0.00 0.55 0.55 75 1012.6
20260507001124 53 234 0.0 0.0 0.00 0.55 0.55 75 1012.5
20260507000625 53 247 0.0 0.0 0.00 0.55 0.55 77 1012.3
20260507000124 53 265 0.0 0.0 0.00 0.55 0.55 78 1012.1
20260506235626 53 265 0.0 0.0 0.00 0.55 0.55 78 1012.3
20260506235124 53 265 0.0 0.0 0.00 0.55 0.55 77 1012.2
20260506234625 53 265 0.0 0.0 0.00 0.55 0.55 77 1012.1
20260506234124 54 264 0.0 0.0 0.00 0.55 0.55 78 1012.0
20260506233626 54 265 0.0 0.0 0.00 0.55 0.55 75 1011.9
20260506233125 54 265 0.0 0.0 0.00 0.55 0.55 78 1011.8
20260506232626 54 265 0.0 0.0 0.00 0.55 0.55 75 1011.9
20260506232126 54 264 0.0 0.0 0.00 0.55 0.55 76 1011.8
20260506231624 54 265 0.0 0.0 0.00 0.55 0.55 75 1011.7
20260506231125 54 265 0.0 0.0 0.00 0.55 0.55 75 1011.7
20260506230625 54 264 0.0 0.0 0.00 0.55 0.55 76 1011.6
20260506230125 54 265 0.0 0.0 0.00 0.55 0.55 77 1011.6
20260506225625 54 265 0.0 0.0 0.00 0.55 0.55 73 1011.5
20260506225126 54 265 0.0 0.0 0.00 0.55 0.55 73 1011.3
20260506224624 54 268 0.0 0.0 0.00 0.55 0.55 74 1011.5
20260506224125 54 269 0.0 0.0 0.00 0.55 0.55 74 1011.3
20260506223624 54 250 0.0 0.0 0.00 0.55 0.55 76 1011.2
20260506223126 54 250 0.0 0.0 0.00 0.55 0.55 75 1011.1
20260506222625 54 241 0.0 0.0 0.00 0.55 0.55 74 1011.3
20260506222124 54 262 0.0 0.0 0.00 0.55 0.55 75 1011.2
20260506221624 54 262 0.0 0.0 0.00 0.55 0.55 74 1011.2
20260506221126 55 257 0.0 0.0 0.00 0.55 0.55 75 1011.3